Powrót do katalogu

STARLINK-36462

AktywnyŁącznośćVLEO
NORAD 67321·PAYLOAD·🇺🇸 United States

Wystrzelony Jan 4, 2026 z Cape Canaveral Space Force Station

Loading…

Następne Przeloty (najbliższe 24 godziny)

TLE

ŚwieżeSource: CelesTrak SupGP

Epoka: Sep 15, 2026, 03:54 UTC

1 67321C 26002S   26258.16298611  .00051226  00000+0  18558-2 0  2588
2 67321  43.0009 335.4765 0001602 254.4299  99.3375 15.27544959    12

Śledź STARLINK-36462 w czasie rzeczywistym z AllMySat

Download on the App Store